Year,Month,Day,Hour,Minute,Value (Times are PST for windgust in km/hr)
2015,01,18,00,00,6.40
2015,01,18,00,01,6.40
2015,01,18,00,02,6.40
2015,01,18,00,03,6.40
2015,01,18,00,04,9.60
2015,01,18,00,05,6.40
2015,01,18,00,06,6.40
2015,01,18,00,07,4.80
2015,01,18,00,08,4.80
2015,01,18,00,09,8.10
2015,01,18,00,10,6.40
2015,01,18,00,11,6.40
2015,01,18,00,12,3.20
2015,01,18,00,13,6.40
2015,01,18,00,14,8.10
2015,01,18,00,15,6.40
2015,01,18,00,16,9.60
2015,01,18,00,17,11.30
2015,01,18,00,18,11.30
2015,01,18,00,19,11.30
2015,01,18,00,20,11.30
2015,01,18,00,21,6.40
2015,01,18,00,22,8.10
2015,01,18,00,23,8.10
2015,01,18,00,24,6.40
2015,01,18,00,25,9.60
2015,01,18,00,26,4.80
2015,01,18,00,27,4.80
2015,01,18,00,28,3.20
2015,01,18,00,29,3.20
2015,01,18,00,30,6.40
2015,01,18,00,31,4.80
2015,01,18,00,32,3.20
2015,01,18,00,33,4.80
2015,01,18,00,34,6.40
2015,01,18,00,35,3.20
2015,01,18,00,36,1.60
2015,01,18,00,37,4.80
2015,01,18,00,38,4.80
2015,01,18,00,39,3.20
2015,01,18,00,40,3.20
2015,01,18,00,41,3.20
2015,01,18,00,42,1.60
2015,01,18,00,43,3.20
2015,01,18,00,44,1.60
2015,01,18,00,45,3.20
2015,01,18,00,46,3.20
2015,01,18,00,47,6.40
2015,01,18,00,48,6.40
2015,01,18,00,49,6.40
2015,01,18,00,50,6.40
2015,01,18,00,51,4.80
2015,01,18,00,52,6.40
2015,01,18,00,53,4.80
2015,01,18,00,54,4.80
2015,01,18,00,55,8.10
2015,01,18,00,56,6.40
2015,01,18,00,57,3.20
2015,01,18,00,58,4.80
2015,01,18,00,59,8.10
2015,01,18,01,00,8.10
2015,01,18,01,01,6.40
2015,01,18,01,02,4.80
2015,01,18,01,03,3.20
2015,01,18,01,04,1.60
2015,01,18,01,05,8.10
2015,01,18,01,06,3.20
2015,01,18,01,07,1.60
2015,01,18,01,08,6.40
2015,01,18,01,09,8.10
2015,01,18,01,10,3.20
2015,01,18,01,11,16.10
2015,01,18,01,12,6.40
2015,01,18,01,13,6.40
2015,01,18,01,14,4.80
2015,01,18,01,15,4.80
2015,01,18,01,16,4.80
2015,01,18,01,17,6.40
2015,01,18,01,18,4.80
2015,01,18,01,19,3.20
2015,01,18,01,20,4.80
2015,01,18,01,21,6.40
2015,01,18,01,22,3.20
2015,01,18,01,23,4.80
2015,01,18,01,24,8.10
2015,01,18,01,25,11.30
2015,01,18,01,26,8.10
2015,01,18,01,27,16.10
2015,01,18,01,28,6.40
2015,01,18,01,29,16.10
2015,01,18,01,30,9.60
2015,01,18,01,31,11.30
2015,01,18,01,32,17.70
2015,01,18,01,33,20.90
2015,01,18,01,34,9.60
2015,01,18,01,35,19.30
2015,01,18,01,36,17.70
2015,01,18,01,37,16.10
2015,01,18,01,38,19.30
2015,01,18,01,39,16.10
2015,01,18,01,40,11.30
2015,01,18,01,41,25.70
2015,01,18,01,42,24.20
2015,01,18,01,43,17.70
2015,01,18,01,44,19.30
2015,01,18,01,45,30.60
2015,01,18,01,46,20.90
2015,01,18,01,47,25.70
2015,01,18,01,48,24.20
2015,01,18,01,49,32.20
2015,01,18,01,50,27.40
2015,01,18,01,51,33.80
2015,01,18,01,52,30.60
2015,01,18,01,53,40.20
2015,01,18,01,54,27.40
2015,01,18,01,55,27.40
2015,01,18,01,56,27.40
2015,01,18,01,57,32.20
2015,01,18,01,58,19.30
2015,01,18,01,59,19.30
2015,01,18,02,00,24.20
2015,01,18,02,01,19.30
2015,01,18,02,02,30.60
2015,01,18,02,03,19.30
2015,01,18,02,04,24.20
2015,01,18,02,05,24.20
2015,01,18,02,06,32.20
2015,01,18,02,07,27.40
2015,01,18,02,08,30.60
2015,01,18,02,09,11.30
2015,01,18,02,10,25.70
2015,01,18,02,11,17.70
2015,01,18,02,12,19.30
2015,01,18,02,13,27.40
2015,01,18,02,14,20.90
2015,01,18,02,15,27.40
2015,01,18,02,16,22.50
2015,01,18,02,17,25.70
2015,01,18,02,18,19.30
2015,01,18,02,19,20.90
2015,01,18,02,20,20.90
2015,01,18,02,21,24.20
2015,01,18,02,22,20.90
2015,01,18,02,23,20.90
2015,01,18,02,24,25.70
2015,01,18,02,25,14.50
2015,01,18,02,26,19.30
2015,01,18,02,27,22.50
2015,01,18,02,28,14.50
2015,01,18,02,29,25.70
2015,01,18,02,30,17.70
2015,01,18,02,31,25.70
2015,01,18,02,32,24.20
2015,01,18,02,33,22.50
2015,01,18,02,34,14.50
2015,01,18,02,35,14.50
2015,01,18,02,36,32.20
2015,01,18,02,37,29.00
2015,01,18,02,38,29.00
2015,01,18,02,39,11.30
2015,01,18,02,40,19.30
2015,01,18,02,41,14.50
2015,01,18,02,42,17.70
2015,01,18,02,43,9.60
2015,01,18,02,44,11.30
2015,01,18,02,45,17.70
2015,01,18,02,46,11.30
2015,01,18,02,47,12.90
2015,01,18,02,48,6.40
2015,01,18,02,49,8.10
2015,01,18,02,50,8.10
2015,01,18,02,51,14.50
2015,01,18,02,52,8.10
2015,01,18,02,53,17.70
2015,01,18,02,54,20.90
2015,01,18,02,55,25.70
2015,01,18,02,56,12.90
2015,01,18,02,57,19.30
2015,01,18,02,58,11.30
2015,01,18,02,59,19.30
2015,01,18,03,00,16.10
2015,01,18,03,01,4.80
2015,01,18,03,02,8.10
2015,01,18,03,03,14.50
2015,01,18,03,04,17.70
2015,01,18,03,05,22.50
2015,01,18,03,06,20.90
2015,01,18,03,07,17.70
2015,01,18,03,08,27.40
2015,01,18,03,09,14.50
2015,01,18,03,10,11.30
2015,01,18,03,11,17.70
2015,01,18,03,12,9.60
2015,01,18,03,13,8.10
2015,01,18,03,14,6.40
2015,01,18,03,15,11.30
2015,01,18,03,16,8.10
2015,01,18,03,17,9.60
2015,01,18,03,18,6.40
2015,01,18,03,19,14.50
2015,01,18,03,20,9.60
2015,01,18,03,21,11.30
2015,01,18,03,22,6.40
2015,01,18,03,23,3.20
2015,01,18,03,24,6.40
2015,01,18,03,25,3.20
2015,01,18,03,26,8.10
2015,01,18,03,27,8.10
2015,01,18,03,28,9.60
2015,01,18,03,29,19.30
2015,01,18,03,30,4.80
2015,01,18,03,31,4.80
2015,01,18,03,32,3.20
2015,01,18,03,33,8.10
2015,01,18,03,34,11.30
2015,01,18,03,35,4.80
2015,01,18,03,36,4.80
2015,01,18,03,37,4.80
2015,01,18,03,38,4.80
2015,01,18,03,39,3.20
2015,01,18,03,41,6.40
2015,01,18,03,42,3.20
2015,01,18,03,43,4.80
2015,01,18,03,44,3.20
2015,01,18,03,45,6.40
2015,01,18,03,46,6.40
2015,01,18,03,47,3.20
2015,01,18,03,48,4.80
2015,01,18,03,49,3.20
2015,01,18,03,51,3.20
2015,01,18,03,52,3.20
2015,01,18,03,53,3.20
2015,01,18,03,54,1.60
2015,01,18,03,55,1.60
2015,01,18,03,56,4.80
2015,01,18,03,57,3.20
2015,01,18,03,58,4.80
2015,01,18,03,59,3.20
2015,01,18,04,00,3.20
2015,01,18,04,01,6.40
2015,01,18,04,02,3.20
2015,01,18,04,03,4.80
2015,01,18,04,04,3.20
2015,01,18,04,05,4.80
2015,01,18,04,06,1.60
2015,01,18,04,07,3.20
2015,01,18,04,08,6.40
2015,01,18,04,09,3.20
2015,01,18,04,10,4.80
2015,01,18,04,11,6.40
2015,01,18,04,12,6.40
2015,01,18,04,13,6.40
2015,01,18,04,14,1.60
2015,01,18,04,15,3.20
2015,01,18,04,16,6.40
2015,01,18,04,17,6.40
2015,01,18,04,18,6.40
2015,01,18,04,19,6.40
2015,01,18,04,20,6.40
2015,01,18,04,21,6.40
2015,01,18,04,22,4.80
2015,01,18,04,23,3.20
2015,01,18,04,24,4.80
2015,01,18,04,25,3.20
2015,01,18,04,26,4.80
2015,01,18,04,27,8.10
2015,01,18,04,29,3.20
2015,01,18,04,30,3.20
2015,01,18,04,31,4.80
2015,01,18,04,32,3.20
2015,01,18,04,33,1.60
2015,01,18,04,34,3.20
2015,01,18,04,35,4.80
2015,01,18,04,36,1.60
2015,01,18,04,37,1.60
2015,01,18,04,39,1.60
2015,01,18,04,40,1.60
2015,01,18,04,41,1.60
2015,01,18,04,42,1.60
2015,01,18,04,43,1.60
2015,01,18,04,44,1.60
2015,01,18,04,45,9.60
2015,01,18,04,46,3.20
2015,01,18,04,47,11.30
2015,01,18,04,48,8.10
2015,01,18,04,49,3.20
2015,01,18,04,50,1.60
2015,01,18,04,51,3.20
2015,01,18,04,52,3.20
2015,01,18,04,53,1.60
2015,01,18,04,54,4.80
2015,01,18,04,55,3.20
2015,01,18,04,57,3.20
2015,01,18,04,58,4.80
2015,01,18,04,59,4.80
2015,01,18,05,00,3.20
2015,01,18,05,01,3.20
2015,01,18,05,02,4.80
2015,01,18,05,03,3.20
2015,01,18,05,04,4.80
2015,01,18,05,05,8.10
2015,01,18,05,06,14.50
2015,01,18,05,07,9.60
2015,01,18,05,08,6.40
2015,01,18,05,10,9.60
2015,01,18,05,11,8.10
2015,01,18,05,12,6.40
2015,01,18,05,13,6.40
2015,01,18,05,14,11.30
2015,01,18,05,15,6.40
2015,01,18,05,16,8.10
2015,01,18,05,17,6.40
2015,01,18,05,18,11.30
2015,01,18,05,19,6.40
2015,01,18,05,20,11.30
2015,01,18,05,21,16.10
2015,01,18,05,22,11.30
2015,01,18,05,23,20.90
2015,01,18,05,24,14.50
2015,01,18,05,25,6.40
2015,01,18,05,26,4.80
2015,01,18,05,27,8.10
2015,01,18,05,28,6.40
2015,01,18,05,29,16.10
2015,01,18,05,30,9.60
2015,01,18,05,31,16.10
2015,01,18,05,32,8.10
2015,01,18,05,33,6.40
2015,01,18,05,34,20.90
2015,01,18,05,35,24.20
2015,01,18,05,36,19.30
2015,01,18,05,37,30.60
2015,01,18,05,38,19.30
2015,01,18,05,39,16.10
2015,01,18,05,40,12.90
2015,01,18,05,41,17.70
2015,01,18,05,42,17.70
2015,01,18,05,43,27.40
2015,01,18,05,44,22.50
2015,01,18,05,45,19.30
2015,01,18,05,46,19.30
2015,01,18,05,47,25.70
2015,01,18,05,48,20.90
2015,01,18,05,49,14.50
2015,01,18,05,50,14.50
2015,01,18,05,51,20.90
2015,01,18,05,52,22.50
2015,01,18,05,53,17.70
2015,01,18,05,54,14.50
2015,01,18,05,55,16.10
2015,01,18,05,56,20.90
2015,01,18,05,57,19.30
2015,01,18,05,58,20.90
2015,01,18,05,59,19.30
2015,01,18,06,00,19.30
2015,01,18,06,01,16.10
2015,01,18,06,02,24.20
2015,01,18,06,03,20.90
2015,01,18,06,04,14.50
2015,01,18,06,05,20.90
2015,01,18,06,06,16.10
2015,01,18,06,07,17.70
2015,01,18,06,08,19.30
2015,01,18,06,09,17.70
2015,01,18,06,10,16.10
2015,01,18,06,11,16.10
2015,01,18,06,12,16.10
2015,01,18,06,13,19.30
2015,01,18,06,14,19.30
2015,01,18,06,15,30.60
2015,01,18,06,16,27.40
2015,01,18,06,17,24.20
2015,01,18,06,18,22.50
2015,01,18,06,19,17.70
2015,01,18,06,20,22.50
2015,01,18,06,21,37.00
2015,01,18,06,22,29.00
2015,01,18,06,23,17.70
2015,01,18,06,24,20.90
2015,01,18,06,25,17.70
2015,01,18,06,26,22.50
2015,01,18,06,27,14.50
2015,01,18,06,28,33.80
2015,01,18,06,29,30.60
2015,01,18,06,30,14.50
2015,01,18,06,31,20.90
2015,01,18,06,32,19.30
2015,01,18,06,33,29.00
2015,01,18,06,34,22.50
2015,01,18,06,35,17.70
2015,01,18,06,36,14.50
2015,01,18,06,37,24.20
2015,01,18,06,38,24.20
2015,01,18,06,39,16.10
2015,01,18,06,40,19.30
2015,01,18,06,41,19.30
2015,01,18,06,42,19.30
2015,01,18,06,43,20.90
2015,01,18,06,44,30.60
2015,01,18,06,45,16.10
2015,01,18,06,46,20.90
2015,01,18,06,47,24.20
2015,01,18,06,48,45.10
2015,01,18,06,49,30.60
2015,01,18,06,50,25.70
2015,01,18,06,51,27.40
2015,01,18,06,52,32.20
2015,01,18,06,53,35.40
2015,01,18,06,54,19.30
2015,01,18,06,55,25.70
2015,01,18,06,56,22.50
2015,01,18,06,57,20.90
2015,01,18,06,58,22.50
2015,01,18,06,59,24.20
2015,01,18,07,00,19.30
2015,01,18,07,01,17.70
2015,01,18,07,02,19.30
2015,01,18,07,03,24.20
2015,01,18,07,04,20.90
2015,01,18,07,05,11.30
2015,01,18,07,06,24.20
2015,01,18,07,07,20.90
2015,01,18,07,08,25.70
2015,01,18,07,09,20.90
2015,01,18,07,10,19.30
2015,01,18,07,11,25.70
2015,01,18,07,12,17.70
2015,01,18,07,13,17.70
2015,01,18,07,14,40.20
2015,01,18,07,15,22.50
2015,01,18,07,16,20.90
2015,01,18,07,17,24.20
2015,01,18,07,18,30.60
2015,01,18,07,19,20.90
2015,01,18,07,20,32.20
2015,01,18,07,21,30.60
2015,01,18,07,22,19.30
2015,01,18,07,23,19.30
2015,01,18,07,24,32.20
2015,01,18,07,25,20.90
2015,01,18,07,26,19.30
2015,01,18,07,27,22.50
2015,01,18,07,28,20.90
2015,01,18,07,29,20.90
2015,01,18,07,30,32.20
2015,01,18,07,31,22.50
2015,01,18,07,32,25.70
2015,01,18,07,33,19.30
2015,01,18,07,34,19.30
2015,01,18,07,35,16.10
2015,01,18,07,36,22.50
2015,01,18,07,37,22.50
2015,01,18,07,38,25.70
2015,01,18,07,39,24.20
2015,01,18,07,40,20.90
2015,01,18,07,41,22.50
2015,01,18,07,42,17.70
2015,01,18,07,43,14.50
2015,01,18,07,44,27.40
2015,01,18,07,45,19.30
2015,01,18,07,46,27.40
2015,01,18,07,47,27.40
2015,01,18,07,48,24.20
2015,01,18,07,49,14.50
2015,01,18,07,50,33.80
2015,01,18,07,51,40.20
2015,01,18,07,52,22.50
2015,01,18,07,53,35.40
2015,01,18,07,54,27.40
2015,01,18,07,55,27.40
2015,01,18,07,56,20.90
2015,01,18,07,57,41.80
2015,01,18,07,58,32.20
2015,01,18,07,59,30.60
2015,01,18,08,00,29.00
2015,01,18,08,01,64.40
2015,01,18,08,02,40.20
2015,01,18,08,03,30.60
2015,01,18,08,04,20.90
2015,01,18,08,05,30.60
2015,01,18,08,06,32.20
2015,01,18,08,07,32.20
2015,01,18,08,08,32.20
2015,01,18,08,09,25.70
2015,01,18,08,10,33.80
2015,01,18,08,11,37.00
2015,01,18,10,43,9.60
2015,01,18,10,44,16.10
2015,01,18,10,45,11.30
2015,01,18,10,46,6.40
2015,01,18,10,47,11.30
2015,01,18,10,48,11.30
2015,01,18,10,49,4.80
2015,01,18,10,50,6.40
2015,01,18,10,51,4.80
2015,01,18,10,52,8.10
2015,01,18,10,53,3.20
2015,01,18,10,54,4.80
2015,01,18,10,55,14.50
2015,01,18,10,56,17.70
2015,01,18,10,57,6.40
2015,01,18,10,58,4.80
2015,01,18,10,59,4.80
2015,01,18,11,00,1.60
2015,01,18,11,01,1.60
2015,01,18,11,02,1.60
2015,01,18,11,03,3.20
2015,01,18,11,04,4.80
2015,01,18,11,05,4.80
2015,01,18,11,06,6.40
2015,01,18,11,07,6.40
2015,01,18,11,08,17.70
2015,01,18,11,09,8.10
2015,01,18,11,10,4.80
2015,01,18,11,11,9.60
2015,01,18,11,12,14.50
2015,01,18,11,13,6.40
2015,01,18,11,14,4.80
2015,01,18,11,15,6.40
2015,01,18,11,16,11.30
2015,01,18,11,17,9.60
2015,01,18,11,18,17.70
2015,01,18,11,19,16.10
2015,01,18,11,20,9.60
2015,01,18,11,21,11.30
2015,01,18,11,22,12.90
2015,01,18,11,23,8.10
2015,01,18,11,24,12.90
2015,01,18,11,25,14.50
2015,01,18,11,26,14.50
2015,01,18,11,27,14.50
2015,01,18,11,28,20.90
2015,01,18,11,29,17.70
2015,01,18,11,30,9.60
2015,01,18,11,31,9.60
2015,01,18,11,32,11.30
2015,01,18,11,33,11.30
2015,01,18,11,34,4.80
2015,01,18,11,35,8.10
2015,01,18,11,36,9.60
2015,01,18,11,37,17.70
2015,01,18,11,38,19.30
2015,01,18,11,39,8.10
2015,01,18,11,40,9.60
2015,01,18,11,41,6.40
2015,01,18,11,42,8.10
2015,01,18,11,43,14.50
2015,01,18,11,44,11.30
2015,01,18,11,45,6.40
2015,01,18,11,46,3.20
2015,01,18,11,47,3.20
2015,01,18,11,48,6.40
2015,01,18,11,49,8.10
2015,01,18,11,50,6.40
2015,01,18,11,51,3.20
2015,01,18,11,52,8.10
2015,01,18,11,53,8.10
2015,01,18,11,54,8.10
2015,01,18,11,55,6.40
2015,01,18,11,56,6.40
2015,01,18,11,57,6.40
2015,01,18,11,58,6.40
2015,01,18,11,59,11.30
2015,01,18,12,00,6.40
2015,01,18,12,01,4.80
2015,01,18,12,02,6.40
2015,01,18,12,03,3.20
2015,01,18,12,04,8.10
2015,01,18,12,05,6.40
2015,01,18,12,06,6.40
2015,01,18,12,07,6.40
2015,01,18,12,08,9.60
2015,01,18,12,09,6.40
2015,01,18,12,10,9.60
2015,01,18,12,11,9.60
2015,01,18,12,12,9.60
2015,01,18,12,13,11.30
2015,01,18,12,14,8.10
2015,01,18,12,15,11.30
2015,01,18,12,16,19.30
2015,01,18,12,17,8.10
2015,01,18,12,18,11.30
2015,01,18,12,19,8.10
2015,01,18,12,20,6.40
2015,01,18,12,21,4.80
2015,01,18,12,22,9.60
2015,01,18,12,23,4.80
2015,01,18,12,24,6.40
2015,01,18,12,25,9.60
2015,01,18,12,26,27.40
2015,01,18,12,27,19.30
2015,01,18,12,28,9.60
2015,01,18,12,29,9.60
2015,01,18,12,30,11.30
2015,01,18,12,31,14.50
2015,01,18,12,32,3.20
2015,01,18,12,33,9.60
2015,01,18,12,34,8.10
2015,01,18,12,35,8.10
2015,01,18,12,36,6.40
2015,01,18,12,37,9.60
2015,01,18,12,38,19.30
2015,01,18,12,39,9.60
2015,01,18,12,40,9.60
2015,01,18,12,41,8.10
2015,01,18,12,42,9.60
2015,01,18,12,43,9.60
2015,01,18,12,44,14.50
2015,01,18,12,45,12.90
2015,01,18,12,46,11.30
2015,01,18,12,47,6.40
2015,01,18,12,48,14.50
2015,01,18,12,49,9.60
2015,01,18,12,50,8.10
2015,01,18,12,51,14.50
2015,01,18,12,52,8.10
2015,01,18,12,53,9.60
2015,01,18,12,54,8.10
2015,01,18,12,55,16.10
2015,01,18,12,56,9.60
2015,01,18,12,57,6.40
2015,01,18,12,58,8.10
2015,01,18,12,59,6.40
2015,01,18,13,00,6.40
2015,01,18,13,01,9.60
2015,01,18,13,02,8.10
2015,01,18,13,03,6.40
2015,01,18,13,04,8.10
2015,01,18,13,05,9.60
2015,01,18,13,06,8.10
2015,01,18,13,07,11.30
2015,01,18,13,08,6.40
2015,01,18,13,09,17.70
2015,01,18,13,10,6.40
2015,01,18,13,11,8.10
2015,01,18,13,12,8.10
2015,01,18,13,13,8.10
2015,01,18,13,14,9.60
2015,01,18,13,15,14.50
2015,01,18,13,16,14.50
2015,01,18,13,17,11.30
2015,01,18,13,18,17.70
2015,01,18,13,19,11.30
2015,01,18,13,20,20.90
2015,01,18,13,21,11.30
2015,01,18,13,22,9.60
2015,01,18,13,23,9.60
2015,01,18,13,24,8.10
2015,01,18,13,25,6.40
2015,01,18,13,26,8.10
2015,01,18,13,27,20.90
2015,01,18,13,28,11.30
2015,01,18,13,29,11.30
2015,01,18,13,30,16.10
2015,01,18,13,31,14.50
2015,01,18,13,32,11.30
2015,01,18,13,33,6.40
2015,01,18,13,34,8.10
2015,01,18,13,35,6.40
2015,01,18,13,36,8.10
2015,01,18,13,37,16.10
2015,01,18,13,38,9.60
2015,01,18,13,39,14.50
2015,01,18,13,40,11.30
2015,01,18,13,41,8.10
2015,01,18,13,42,6.40
2015,01,18,13,43,8.10
2015,01,18,13,44,8.10
2015,01,18,13,45,6.40
2015,01,18,13,46,6.40
2015,01,18,13,47,9.60
2015,01,18,13,48,9.60
2015,01,18,13,49,11.30
2015,01,18,13,50,8.10
2015,01,18,13,51,8.10
2015,01,18,13,52,8.10
2015,01,18,13,53,11.30
2015,01,18,13,54,11.30
2015,01,18,13,55,16.10
2015,01,18,13,56,9.60
2015,01,18,13,57,14.50
2015,01,18,13,58,9.60
2015,01,18,13,59,14.50
2015,01,18,14,00,14.50
2015,01,18,14,01,11.30
2015,01,18,14,02,14.50
2015,01,18,14,03,19.30
2015,01,18,14,04,11.30
2015,01,18,14,05,14.50
2015,01,18,14,06,11.30
2015,01,18,14,07,11.30
2015,01,18,14,08,8.10
2015,01,18,14,09,9.60
2015,01,18,14,10,9.60
2015,01,18,14,11,11.30
2015,01,18,14,12,9.60
2015,01,18,14,13,6.40
2015,01,18,14,14,16.10
2015,01,18,14,15,9.60
2015,01,18,14,16,14.50
2015,01,18,14,17,19.30
2015,01,18,14,18,14.50
2015,01,18,14,19,16.10
2015,01,18,14,20,11.30
2015,01,18,14,21,9.60
2015,01,18,14,22,9.60
2015,01,18,14,23,14.50
2015,01,18,14,24,17.70
2015,01,18,14,25,9.60
2015,01,18,14,26,14.50
2015,01,18,14,27,14.50
2015,01,18,14,28,16.10
2015,01,18,14,29,11.30
2015,01,18,14,30,9.60
2015,01,18,14,31,11.30
2015,01,18,14,32,8.10
2015,01,18,14,33,14.50
2015,01,18,14,34,9.60
2015,01,18,14,35,9.60
2015,01,18,14,36,14.50
2015,01,18,14,37,11.30
2015,01,18,14,38,6.40
2015,01,18,14,39,6.40
2015,01,18,14,40,8.10
2015,01,18,14,41,9.60
2015,01,18,14,42,12.90
2015,01,18,14,43,6.40
2015,01,18,14,44,6.40
2015,01,18,14,45,8.10
2015,01,18,14,46,6.40
2015,01,18,14,47,4.80
2015,01,18,14,48,6.40
2015,01,18,14,49,14.50
2015,01,18,14,50,8.10
2015,01,18,14,51,8.10
2015,01,18,14,52,8.10
2015,01,18,14,53,14.50
2015,01,18,14,54,9.60
2015,01,18,14,55,6.40
2015,01,18,14,56,6.40
2015,01,18,14,57,16.10
2015,01,18,14,58,9.60
2015,01,18,14,59,11.30
2015,01,18,15,00,14.50
2015,01,18,15,01,11.30
2015,01,18,15,02,9.60
2015,01,18,15,03,17.70
2015,01,18,15,04,9.60
2015,01,18,15,05,20.90
2015,01,18,15,06,9.60
2015,01,18,15,07,14.50
2015,01,18,15,08,9.60
2015,01,18,15,09,8.10
2015,01,18,15,10,6.40
2015,01,18,15,11,11.30
2015,01,18,15,12,6.40
2015,01,18,15,13,25.70
2015,01,18,15,14,9.60
2015,01,18,15,15,19.30
2015,01,18,15,16,17.70
2015,01,18,15,17,8.10
2015,01,18,15,18,11.30
2015,01,18,15,19,9.60
2015,01,18,15,20,8.10
2015,01,18,15,21,16.10
2015,01,18,15,22,9.60
2015,01,18,15,23,14.50
2015,01,18,15,24,11.30
2015,01,18,15,25,6.40
2015,01,18,15,26,6.40
2015,01,18,15,27,8.10
2015,01,18,15,28,12.90
2015,01,18,15,29,8.10
2015,01,18,15,30,9.60
2015,01,18,15,31,11.30
2015,01,18,15,32,9.60
2015,01,18,15,33,6.40
2015,01,18,15,34,6.40
2015,01,18,15,35,8.10
2015,01,18,15,36,11.30
2015,01,18,15,37,9.60
2015,01,18,15,38,8.10
2015,01,18,15,39,11.30
2015,01,18,15,40,9.60
2015,01,18,15,41,9.60
2015,01,18,15,42,14.50
2015,01,18,15,43,14.50
2015,01,18,15,44,9.60
2015,01,18,15,45,16.10
2015,01,18,15,46,9.60
2015,01,18,15,47,9.60
2015,01,18,15,48,9.60
2015,01,18,15,49,14.50
2015,01,18,15,50,14.50
2015,01,18,15,51,17.70
2015,01,18,15,52,12.90
2015,01,18,15,53,17.70
2015,01,18,15,54,14.50
2015,01,18,15,55,8.10
2015,01,18,15,56,9.60
2015,01,18,15,57,11.30
2015,01,18,15,58,8.10
2015,01,18,15,59,12.90
2015,01,18,16,00,17.70
2015,01,18,16,01,12.90
2015,01,18,16,02,11.30
2015,01,18,16,03,12.90
2015,01,18,16,04,22.50
2015,01,18,16,05,11.30
2015,01,18,16,06,11.30
2015,01,18,16,07,20.90
2015,01,18,16,08,17.70
2015,01,18,16,09,9.60
2015,01,18,16,10,9.60
2015,01,18,16,11,11.30
2015,01,18,16,12,9.60
2015,01,18,16,13,9.60
2015,01,18,16,14,8.10
2015,01,18,16,15,8.10
2015,01,18,16,16,8.10
2015,01,18,16,17,14.50
2015,01,18,16,18,11.30
2015,01,18,16,19,11.30
2015,01,18,16,20,11.30
2015,01,18,16,21,9.60
2015,01,18,16,22,6.40
2015,01,18,16,23,8.10
2015,01,18,16,24,6.40
2015,01,18,16,25,11.30
2015,01,18,16,26,6.40
2015,01,18,16,27,8.10
2015,01,18,16,28,6.40
2015,01,18,16,29,6.40
2015,01,18,16,30,6.40
2015,01,18,16,31,14.50
2015,01,18,16,32,17.70
2015,01,18,16,33,9.60
2015,01,18,16,34,6.40
2015,01,18,16,35,6.40
2015,01,18,16,36,8.10
2015,01,18,16,37,8.10
2015,01,18,16,38,9.60
2015,01,18,16,39,9.60
2015,01,18,16,40,9.60
2015,01,18,16,41,8.10
2015,01,18,16,42,4.80
2015,01,18,16,43,9.60
2015,01,18,16,44,3.20
2015,01,18,16,45,4.80
2015,01,18,16,46,6.40
2015,01,18,16,47,4.80
2015,01,18,16,48,8.10
2015,01,18,16,49,6.40
2015,01,18,16,50,8.10
2015,01,18,16,51,8.10
2015,01,18,16,52,16.10
2015,01,18,16,53,6.40
2015,01,18,16,54,6.40
2015,01,18,16,55,4.80
2015,01,18,16,56,6.40
2015,01,18,16,57,4.80
2015,01,18,16,58,6.40
2015,01,18,16,59,16.10
2015,01,18,17,00,14.50
2015,01,18,17,01,9.60
2015,01,18,17,02,6.40
2015,01,18,17,03,11.30
2015,01,18,17,04,11.30
2015,01,18,17,05,6.40
2015,01,18,17,06,6.40
2015,01,18,17,07,4.80
2015,01,18,17,08,9.60
2015,01,18,17,09,6.40
2015,01,18,17,10,14.50
2015,01,18,17,11,17.70
2015,01,18,17,12,6.40
2015,01,18,17,13,14.50
2015,01,18,17,14,9.60
2015,01,18,17,15,11.30
2015,01,18,17,16,4.80
2015,01,18,17,17,8.10
2015,01,18,17,18,8.10
2015,01,18,17,19,6.40
2015,01,18,17,20,9.60
2015,01,18,17,21,8.10
2015,01,18,17,22,4.80
2015,01,18,17,23,4.80
2015,01,18,17,24,8.10
2015,01,18,17,25,16.10
2015,01,18,17,26,9.60
2015,01,18,17,27,9.60
2015,01,18,17,28,6.40
2015,01,18,17,29,4.80
2015,01,18,17,30,4.80
2015,01,18,17,31,16.10
2015,01,18,17,32,6.40
2015,01,18,17,33,6.40
2015,01,18,17,34,4.80
2015,01,18,17,35,4.80
2015,01,18,17,36,4.80
2015,01,18,17,37,8.10
2015,01,18,17,38,9.60
2015,01,18,17,39,8.10
2015,01,18,17,40,6.40
2015,01,18,17,41,8.10
2015,01,18,17,42,6.40
2015,01,18,17,43,4.80
2015,01,18,17,44,11.30
2015,01,18,17,45,4.80
2015,01,18,17,46,6.40
2015,01,18,17,47,6.40
2015,01,18,17,48,4.80
2015,01,18,17,49,6.40
2015,01,18,17,50,1.60
2015,01,18,17,51,3.20
2015,01,18,17,52,4.80
2015,01,18,17,53,3.20
2015,01,18,17,54,6.40
2015,01,18,17,55,4.80
2015,01,18,17,56,4.80
2015,01,18,17,57,4.80
2015,01,18,17,58,4.80
2015,01,18,17,59,9.60
2015,01,18,18,00,4.80
2015,01,18,18,01,3.20
2015,01,18,18,02,4.80
2015,01,18,18,03,1.60
2015,01,18,18,04,1.60
2015,01,18,18,05,4.80
2015,01,18,18,06,3.20
2015,01,18,18,07,3.20
2015,01,18,18,08,6.40
2015,01,18,18,09,4.80
2015,01,18,18,10,6.40
2015,01,18,18,11,6.40
2015,01,18,18,12,11.30
2015,01,18,18,13,6.40
2015,01,18,18,14,8.10
2015,01,18,18,15,4.80
2015,01,18,18,16,8.10
2015,01,18,18,17,4.80
2015,01,18,18,18,6.40
2015,01,18,18,19,6.40
2015,01,18,18,20,6.40
2015,01,18,18,21,4.80
2015,01,18,18,22,6.40
2015,01,18,18,23,6.40
2015,01,18,18,24,4.80
2015,01,18,18,25,4.80
2015,01,18,18,26,8.10
2015,01,18,18,27,8.10
2015,01,18,18,28,8.10
2015,01,18,18,29,4.80
2015,01,18,18,30,8.10
2015,01,18,18,31,9.60
2015,01,18,18,32,8.10
2015,01,18,18,33,8.10
2015,01,18,18,34,8.10
2015,01,18,18,35,4.80
2015,01,18,18,36,3.20
2015,01,18,18,37,9.60
2015,01,18,18,38,6.40
2015,01,18,18,39,6.40
2015,01,18,18,40,6.40
2015,01,18,18,41,6.40
2015,01,18,18,42,3.20
2015,01,18,18,43,4.80
2015,01,18,18,44,6.40
2015,01,18,18,45,4.80
2015,01,18,18,46,6.40
2015,01,18,18,47,4.80
2015,01,18,18,48,4.80
2015,01,18,18,49,3.20
2015,01,18,18,50,6.40
2015,01,18,18,51,4.80
2015,01,18,18,52,4.80
2015,01,18,18,53,8.10
2015,01,18,18,54,9.60
2015,01,18,18,55,3.20
2015,01,18,18,56,4.80
2015,01,18,18,57,4.80
2015,01,18,18,58,4.80
2015,01,18,18,59,1.60
2015,01,18,19,00,1.60
2015,01,18,19,01,3.20
2015,01,18,19,02,3.20
2015,01,18,19,03,4.80
2015,01,18,19,04,1.60
2015,01,18,19,05,4.80
2015,01,18,19,06,6.40
2015,01,18,19,07,4.80
2015,01,18,19,08,1.60
2015,01,18,19,09,8.10
2015,01,18,19,10,8.10
2015,01,18,19,11,9.60
2015,01,18,19,12,17.70
2015,01,18,19,13,8.10
2015,01,18,19,14,9.60
2015,01,18,19,15,11.30
2015,01,18,19,16,8.10
2015,01,18,19,17,8.10
2015,01,18,19,18,14.50
2015,01,18,19,19,8.10
2015,01,18,19,20,11.30
2015,01,18,19,21,9.60
2015,01,18,19,22,6.40
2015,01,18,19,23,4.80
2015,01,18,19,24,6.40
2015,01,18,19,25,14.50
2015,01,18,19,26,9.60
2015,01,18,19,27,4.80
2015,01,18,19,28,6.40
2015,01,18,19,29,3.20
2015,01,18,19,30,3.20
2015,01,18,19,31,3.20
2015,01,18,19,32,6.40
2015,01,18,19,33,3.20
2015,01,18,19,34,8.10
2015,01,18,19,35,6.40
2015,01,18,19,36,4.80
2015,01,18,19,37,1.60
2015,01,18,19,38,6.40
2015,01,18,19,39,6.40
2015,01,18,19,40,4.80
2015,01,18,19,41,1.60
2015,01,18,19,42,4.80
2015,01,18,19,43,4.80
2015,01,18,19,44,4.80
2015,01,18,19,45,6.40
2015,01,18,19,46,8.10
2015,01,18,19,47,3.20
2015,01,18,19,48,1.60
2015,01,18,19,49,4.80
2015,01,18,19,50,4.80
2015,01,18,19,51,8.10
2015,01,18,19,52,14.50
2015,01,18,19,53,3.20
2015,01,18,19,54,6.40
2015,01,18,19,55,8.10
2015,01,18,19,56,6.40
2015,01,18,19,57,4.80
2015,01,18,19,58,4.80
2015,01,18,19,59,8.10
2015,01,18,20,00,6.40
2015,01,18,20,01,6.40
2015,01,18,20,02,6.40
2015,01,18,20,03,3.20
2015,01,18,20,04,4.80
2015,01,18,20,05,4.80
2015,01,18,20,06,3.20
2015,01,18,20,07,8.10
2015,01,18,20,08,6.40
2015,01,18,20,09,6.40
2015,01,18,20,10,4.80
2015,01,18,20,11,3.20
2015,01,18,20,12,3.20
2015,01,18,20,13,1.60
2015,01,18,20,14,3.20
2015,01,18,20,15,3.20
2015,01,18,20,16,3.20
2015,01,18,20,17,6.40
2015,01,18,20,18,4.80
2015,01,18,20,19,8.10
2015,01,18,20,20,3.20
2015,01,18,20,21,3.20
2015,01,18,20,22,3.20
2015,01,18,20,23,1.60